Regional Weather Roundup
Issued by NWS

Home | Current Version | Previous Version | Graphics & Text | Print | Product List | Glossary On
Versions: 1 2 3 4 5 6 7 8 9 10 11 12 13 14 15 16 17 18 19 20 21 22 23 24 25 26 27 28 29 30 31 32 33 34 35 36 37 38 39 40 41 42 43 44 45 46 47 48 49 50
000
ASUS43 KIND 302059
RWRIN

WEATHER ROUNDUP FOR INDIANA
NATIONAL WEATHER SERVICE INDIANAPOLIS IN
500 PM EDT SAT MAY 30 2015

NOTE: "FAIR" INDICATES FEW OR NO CLOUDS BELOW 12,000 FEET WITH NO
SIGNIFICANT WEATHER AND/OR OBSTRUCTIONS TO VISIBILITY.

* - STATION DOES NOT REPORT WEATHER SUCH AS PRECIPITATION OR FOG.

+ - STATION NOT QUALITY CONTROLLED BY THE NATIONAL WEATHER SERVICE.
    USE DATA WITH CAUTION...ESPECIALLY DEWPOINT AND RELATIVE
    HUMIDITY OBSERVATIONS.

INZ001>003-010>013-019-020-302200-
NORTHWEST INDIANA

CITY           SKY/WX    TMP DP  RH WIND       PRES   REMARKS
RENSSELAER +   CLOUDY    55  55 100 NW12G22   29.96R
VALPARAISO     LGT RAIN  50  48  93 N10G17    30.00R FOG

$$

LMZ046-743>745-302200-
SOUTHERN LAKE MICHIGAN

STATION/POSITION TIME  TEMP    WIND        PRES    WAVE
                       AIR SEA DIR/SP/G            HT
                 (UTC) (F)     (DEG/KT/KT) (MB)    (FT)
BURNS HARBOR     2000   47      10/ 14/ 16 1017.3F
MICHIGAN CITY    2000   46     360/ 12/ 14   N/A
5NW MICH CITY    2000   47 56   30/ 14/ 17   N/A     4

$$

INZ004-005-014>016-021>024-302200-
NORTH CENTRAL INDIANA

CITY           SKY/WX    TMP DP  RH WIND       PRES   REMARKS
GOSHEN         HVY RAIN  67  64  90 N3G23     29.94S VSB 1/2
SOUTH BEND     LGT RAIN  66  64  93 N13       29.96S FOG
WARSAW +       CLOUDY    68  66  94 CALM      29.93F

$$

INZ006>009-017-018-025>027-302200-
NORTHEAST INDIANA

CITY           SKY/WX    TMP DP  RH WIND       PRES   REMARKS
ANGOLA *+      PTSUNNY   73  70  88 S6        29.93F
FORT WAYNE     CLOUDY    70  67  90 SW5       29.94F

$$

INZ028-029-035-036-043>045-051>053-302200-
WEST CENTRAL INDIANA

CITY           SKY/WX    TMP DP  RH WIND       PRES   REMARKS
CRAWFORDSVL +  CLOUDY    66  62  88 SE6       29.91R
GREENCASTLE +  PTSUNNY   68  63  83 W3        29.94F
LAFAYETTE      RAIN      67  66  97 SE3       29.94S FOG
TERRE HAUTE    MOSUNNY   78  69  73 W8        29.91F

$$

INZ030>032-037>040-046>048-054>057-064-065-302200-
CENTRAL INDIANA

CITY           SKY/WX    TMP DP  RH WIND       PRES   REMARKS
COLUMBUS       PTSUNNY   82  66  57 S18G24    29.93F
GREENWOOD *+   PTSUNNY   77  66  69 SW9       29.92F
INDIANAPOLIS   PTSUNNY   80  65  59 SW15      29.91S
-EAGLE CREEK   PTSUNNY   78  68  71 W15G23    29.93R
KOKOMO *+      CLOUDY    73  66  78 E5        29.94S
MT COMFORT *+  MOSUNNY   82  57  42 S14G22    29.92F
SHELBYVILLE    MOSUNNY   85  67  54 S22G31    29.92F

$$

INZ033-034-041-042-049-050-058-059-302200-
EAST CENTRAL INDIANA

CITY           SKY/WX    TMP DP  RH WIND       PRES   REMARKS
MUNCIE         LGT RAIN  72  67  84 E5        29.95F

$$

INZ060-061-067>069-081>083-085>088-302200-
SOUTHWEST INDIANA

CITY           SKY/WX    TMP DP  RH WIND       PRES   REMARKS
EVANSVILLE     PTSUNNY   80  69  69 SW9       29.90F
HUNTINGBURG *+ PTSUNNY   82  66  57 S22       29.92F

$$

INZ062-063-066-070>080-084-089>092-302200-
SOUTH CENTRAL AND SOUTHEAST INDIANA

CITY           SKY/WX    TMP DP  RH WIND       PRES   REMARKS
BLOOMINGTON    MOSUNNY   81  70  69 S12       29.93F
MADISON *+     MOSUNNY   79  68  69 S9        29.98F
SEYMOUR +      MOSUNNY   88  66  48 S15G25    29.93F

$$



USA.gov is the U.S. government's official web portal to all federal, state and local government web resources and services.